Regional Weather Roundup
Issued by NWS

Home | Current Version | Previous Version | Graphics & Text | Print | Product List | Glossary On
Versions: 1 2 3 4 5 6 7 8 9 10 11 12 13 14 15 16 17 18 19 20 21 22 23 24 25 26 27 28 29 30 31 32 33 34 35 36 37 38 39 40 41 42 43 44 45 46 47 48 49 50
000
ASUS45 KABQ 300010
RWRNM
WEATHER ROUNDUP FOR NEW MEXICO
NATIONAL WEATHER SERVICE ALBUQUERQUE NM
600 PM MDT SUN MAR 29 2015

NOTE: "FAIR" MEANS FEW OR NO CLOUDS BELOW 12,000 FEET AGL WITH NO
       SIGNIFICANT WEATHER OR OBSTRUCTIONS TO VISION.

      THIS PRODUCT IS RELEASED AS TWO VERSIONS.  ONE VERSION NEAR
      THE TOP OF THE HOUR CONTAINING PRELIMINARY DATA FROM ALBUQUERQUE
      AND OTHER STATIONS.  A FINAL VERSION WITH ADDITIONAL DATA IS
      ISSUED ABOUT 10 MINUTES AFTER THE HOUR.

NMZ501-503-504-510>518-300100-
NORTHWEST PLATEAU/NORTHCENTRAL MOUNTAINS

CITY           SKY/WX    TMP DP  RH WIND       PRES   REMARKS
FARMINGTON     SUNNY     74   8   8 W13G21    30.13S
6HR MIN TEMP:  65; 6HR MAX TEMP:  77;

LOS ALAMOS     PTSUNNY   65  15  14 S9G17     30.24R
SANTA FE       MOSUNNY   72  18  13 S15G23    30.18R
6HR MIN TEMP:  69; 6HR MAX TEMP:  75;

TAOS           CLOUDY    61  25  25 E18G26    30.24R
ANGEL FIRE     MOCLDY    52  27  37 SE15G22   30.33S

$$
NMZ402-403-502-505>509-300100-
WESTCENTRAL MOUNTAINS/SOUTHWEST MOUNTAINS

CITY           SKY/WX    TMP DP  RH WIND       PRES   REMARKS
GALLUP         PTSUNNY   72  10   9 W17G23    30.20S
6HR MIN TEMP:  67; 6HR MAX TEMP:  75;

GRANTS         PTSUNNY   70  11  10 CALM      30.21R
SILVER CITY    CLOUDY    73  16  11 NW15      30.21S

$$
NMZ407-409-411-412-300100-
SOUTHERN DESERTS

CITY           SKY/WX    TMP DP  RH WIND       PRES   REMARKS
LORDSBURG      FAIR      81  18   9 W6        30.11F
DEMING         CLOUDY    80  16   9 W10       30.12S
6HR MIN TEMP:  78; 6HR MAX TEMP:  84;

LAS CRUCES     CLOUDY    81  15   8 W15       30.13R
HOLLOMAN AFB   PTSUNNY   83   6   5 CALM      30.07F
ALAMOGORDO     PTSUNNY   82   9   6 CALM      30.10S
T OR C         CLOUDY    80  11   7 W12G22    30.10F
6HR MIN TEMP:  78; 6HR MAX TEMP:  84;


$$
NMZ519>523-300100-
CENTRAL VALLEYS/CENTRAL HIGHLANDS

CITY           SKY/WX    TMP DP  RH WIND       PRES   REMARKS
ALBUQUERQUE    PTSUNNY   76  16  10 SE7       30.13S
6HR MIN TEMP:  69; 6HR MAX TEMP:  80;

DOUBLE EAGLE   MOSUNNY   73   1   6 S7        30.16S
MORIARTY ARPT  FAIR      69  19  14 SE23      30.22R
6HR MIN TEMP:  69; 6HR MAX TEMP:  78;

CLINES CORNERS PTSUNNY   62  24  23 SE15G24   30.26R
6HR MIN TEMP:  62; 6HR MAX TEMP:  72;

BELEN          FAIR      79  13   8 SE7       30.11F
6HR MIN TEMP:  73; 6HR MAX TEMP:  80;

SOCORRO        FAIR      81  13   7 S7        30.09S
6HR MIN TEMP:  78; 6HR MAX TEMP:  84;


$$
NMZ524>526-539-540-300100-
SOUTHCENTRAL MOUNTAINS

CITY           SKY/WX    TMP DP  RH WIND       PRES   REMARKS
RUIDOSO        CLOUDY    66  19  16 E16G22    30.28S

$$
NMZ527>531-300100-
NORTHEAST HIGHLANDS/NORTHEAST PLAINS

CITY           SKY/WX    TMP DP  RH WIND       PRES   REMARKS
LAS VEGAS      CLOUDY    60  27  28 SE17      30.27S
6HR MIN TEMP:  60; 6HR MAX TEMP:  69;

RATON          CLOUDY    60  28  29 SW25G36   30.24R
6HR MIN TEMP:  60; 6HR MAX TEMP:  68; 6HR PCP: TRACE;

CLAYTON        CLOUDY    64  22  20 E7        30.22S
6HR MIN TEMP:  63; 6HR MAX TEMP:  69;


$$
NMZ532>537-300100-
EASTCENTRAL PLAINS

CITY           SKY/WX    TMP DP  RH WIND       PRES   REMARKS
TUCUMCARI      MOSUNNY   71  21  15 E15       30.17F
6HR MIN TEMP:  70; 6HR MAX TEMP:  75;

CANNON AFB     SUNNY     71  25  18 E17       30.18S
6HR MIN TEMP:  71; 6HR MAX TEMP:  76;

CLOVIS AIRPORT SUNNY     70  25  18 E18       30.19S

$$
NMZ028-029-538-300100-
SOUTHEAST PLAINS

CITY           SKY/WX    TMP DP  RH WIND       PRES   REMARKS
ROSWELL        MOSUNNY   82  20  10 E9        30.09R
6HR MIN TEMP:  82; 6HR MAX TEMP:  87;

ARTESIA        SUNNY     84  27  12 E8        30.07S
CARLSBAD       SUNNY     86  24  10 E7        30.04R
6HR MIN TEMP:  84; 6HR MAX TEMP:  90;

HOBBS          SUNNY     81  25  12 NE16G22   30.11R


$$


USA.gov is the U.S. government's official web portal to all federal, state and local government web resources and services.